Hourly Data Report for October 03, 2017

All times are specified in Local Standard Time (LST). Add 1 hour to adjust for Daylight Saving Time where and when it is observed.

NORTH COWICHAN
BRITISH COLUMBIA

48°49'27.010" N
123°43'08.009" W
44.80 m
1015630
71927
VOO

Download Data

Hourly Data (October 2017)
Hourly Data Report for October 3, 2017
Temp Definition
°C
Dew Point Temp Definition
°C
Rel Hum Definition
%
Wind Dir Definition
10's deg

Wind Spd Definition
km/h
Visibility Definition
km
Stn Press Definition
kPa
Hmdx Definition


Wind Chill Definition


Weather Definition


TIME
00:00 4.5 2.0 84 0 1   102.00     LegendNANA
01:00 3.8 1.7 86 0 1   102.02     LegendNANA
02:00 3.5 1.7 88   0   102.06     LegendNANA
03:00 3.1 1.5 89 0 1   102.06     LegendNANA
04:00 2.2 0.8 90   0   102.10     LegendNANA
05:00 2.8 1.5 91 0 1   102.11     LegendNANA
06:00 2.5 1.4 92 36 1   102.13     LegendNANA
07:00 2.9 1.6 91 0 1   102.12     LegendNANA
08:00 8.3 3.7 73   0   102.15     LegendNANA
09:00 11.8 3.8 58 19 2   102.17     LegendNANA
10:00 15.3 1.8 40 10 3   102.16     LegendNANA
11:00 16.3 1.1 36 36 8   102.14     LegendNANA
12:00 17.7 1.7 34 1 5   102.07     LegendNANA
13:00 18.8 -0.1 28 36 5   101.99     LegendNANA
14:00 19.2 1.0 30 35 8   101.94     LegendNANA
15:00 19.2 0.6 29 36 9   101.89     LegendNANA
16:00 18.8 1.2 31 2 6   101.82     LegendNANA
17:00 17.1 3.5 40 2 3   101.79     LegendNANA
18:00 12.4 4.5 58 0 1   101.77     LegendNANA
19:00 9.9 3.9 67 36 2   101.78     LegendNANA
20:00 8.4 3.5 71   0   101.78     LegendNANA
21:00 7.2 3.3 76   0   101.78     LegendNANA
22:00 5.8 2.8 81   0   101.77     LegendNANA
23:00 4.7 2.4 85 0 1   101.79     LegendNANA

Notes on Data Quality.

Legend

  • E = Estimated
  • M = Missing
  • NA = Not Available
  • ‡ = Partner data that is not subject to review by the National Climate Archives
Date modified: